Ketchikan, AK

3:46 PM AKDT on June 25, 2017 (GMT -0800)
Ketchikan International

Weather History for PAKT - November, 2013

Change the Weather History Date:

Saturday, November 9, 2013

  Actual Average Record
Temperature  
Mean Temperature 41 °F -  
Max Temperature 45 °F 45 °F 57 °F (1952)
Min Temperature 37 °F 34 °F 15 °F (1973)
Degree Days  
Heating Degree Days 24    
Moisture  
Dew Point 38 °F    
Average Humidity 91    
Maximum Humidity 100    
Minimum Humidity 82    
Precipitation  
Precipitation 0.03 in - - ()
Sea Level Pressure  
Sea Level Pressure 30.15 in    
Wind  
Wind Speed 3 mph (NW)    
Max Wind Speed 7 mph    
Max Gust Speed -    
Visibility 10 miles    
Events Rain    
Averages and records for this station are not official NWS values.
T = Trace of Precipitation, MM = Missing Value Source: NWS Daily Summary

Daily Weather History Graph

Daily Weather History Graph

Search for Another Location

Airport or City:

Trip Planner

Search our weather history database for the weather conditions in past years. The results will help you decide how hot, cold, wet, or windy it might be!

Date:

Astronomy

Nov. 09, 2013 Rise Set
Actual Time 7:09 AM AKST 3:51 PM AKST
Civil Twilight 6:28 AM AKST 4:31 PM AKST
Nautical Twilight 5:44 AM AKST 5:16 PM AKST
Astronomical Twilight 5:01 AM AKST 5:58 PM AKST
Moon 12:38 PM AKST (11/9) 10:46 PM AKST (11/9)
Length of Visible Light 10h 03m
Length of Day
8h 42m
Waxing Crescent, 46% of the Moon is Illuminated
Nov 9
Waxing Crescent
Nov 9
First Quarter
Nov 17
Full
Nov 25
Last Quarter
Dec 2
New

Hourly Weather History & Observations

Time (AKST) Temp. Windchill Dew Point Humidity Pressure Visibility Wind Dir Wind Speed Gust Speed Precip Events Conditions
12:53 AM 41.0 °F 39.0 °F 39.9 °F 96% 30.01 in 10.0 mi South 3.5 mph - 0.01 in Rain Light Rain
1:00 AM 41.0 °F 39.0 °F 39.2 °F 93% 30.00 in 10.0 mi SSE 3.5 mph - 0.00 in Rain Light Rain
1:10 AM 41.0 °F 39.0 °F 39.2 °F 93% 30.01 in 10.0 mi SSE 3.5 mph - 0.00 in Rain Light Rain
1:24 AM 41.0 °F - 39.2 °F 93% 30.01 in 10.0 mi Calm Calm - 0.00 in Rain Light Rain
1:53 AM 41.0 °F 39.0 °F 39.9 °F 96% 30.03 in 10.0 mi South 3.5 mph - 0.01 in   Overcast
2:26 AM 41.0 °F - 39.2 °F 93% 30.03 in 10.0 mi Calm Calm - N/A   Overcast
3:53 AM 39.9 °F 37.8 °F 39.0 °F 97% 30.06 in 10.0 mi SE 3.5 mph - 0.01 in   Mostly Cloudy
4:51 AM 37.4 °F - 37.4 °F 100% 30.07 in 10.0 mi Calm Calm - 0.00 in   Mostly Cloudy
4:53 AM 37.0 °F - 36.0 °F 96% 30.07 in 10.0 mi Calm Calm - 0.00 in   Mostly Cloudy
5:07 AM 37.4 °F 34.9 °F 35.6 °F 93% 30.07 in 10.0 mi SSW 3.5 mph - N/A   Scattered Clouds
5:53 AM 39.0 °F 36.8 °F 37.9 °F 96% 30.09 in 10.0 mi SE 3.5 mph - N/A   Scattered Clouds
6:07 AM 39.2 °F - 37.4 °F 93% 30.09 in 10.0 mi Calm Calm - N/A   Mostly Cloudy
6:53 AM 37.9 °F - 37.0 °F 97% 30.12 in 10.0 mi Calm Calm - N/A   Overcast
7:53 AM 37.0 °F - 36.0 °F 96% 30.14 in 10.0 mi Calm Calm - N/A   Mostly Cloudy
8:53 AM 39.0 °F - 37.9 °F 96% 30.15 in 10.0 mi Calm Calm - N/A   Scattered Clouds
9:53 AM 42.1 °F 38.4 °F 39.9 °F 92% 30.17 in 10.0 mi NW 5.8 mph - N/A   Scattered Clouds
10:53 AM 43.0 °F 38.8 °F 39.9 °F 89% 30.18 in 10.0 mi NW 6.9 mph - N/A   Scattered Clouds
11:53 AM 45.0 °F 41.2 °F 39.9 °F 82% 30.19 in 10.0 mi NNW 6.9 mph - N/A   Scattered Clouds
12:53 PM 44.1 °F 40.1 °F 39.9 °F 85% 30.19 in 10.0 mi NNW 6.9 mph - N/A   Mostly Cloudy
1:53 PM 43.0 °F 41.3 °F 39.9 °F 89% 30.20 in 10.0 mi NW 3.5 mph - 0.00 in   Scattered Clouds
2:53 PM 42.1 °F 37.7 °F 37.0 °F 82% 30.21 in 10.0 mi NW 6.9 mph - N/A   Mostly Cloudy
3:53 PM 39.9 °F 37.8 °F 37.0 °F 89% 30.22 in 10.0 mi North 3.5 mph - N/A   Scattered Clouds
4:53 PM 37.9 °F 35.5 °F 35.1 °F 89% 30.24 in 10.0 mi NW 3.5 mph - N/A   Scattered Clouds
5:53 PM 39.0 °F 34.8 °F 35.1 °F 86% 30.25 in 10.0 mi NW 5.8 mph - N/A   Overcast
6:53 PM 39.9 °F 36.7 °F 35.1 °F 83% 30.26 in 10.0 mi NW 4.6 mph - N/A   Overcast
7:53 PM 39.9 °F 35.1 °F 37.0 °F 89% 30.27 in 10.0 mi NW 6.9 mph - N/A   Overcast
8:53 PM 39.0 °F 34.8 °F 36.0 °F 89% 30.28 in 10.0 mi NW 5.8 mph - N/A   Overcast
9:53 PM 37.9 °F 34.4 °F 35.1 °F 89% 30.29 in 10.0 mi WNW 4.6 mph - N/A   Scattered Clouds
10:51 PM 39.2 °F 35.9 °F 37.4 °F 93% 30.29 in 10.0 mi NNW 4.6 mph - N/A   Overcast
10:53 PM 39.9 °F 36.7 °F 37.0 °F 89% 30.30 in 10.0 mi NNW 4.6 mph - N/A   Overcast
11:53 PM 39.0 °F 36.8 °F 37.0 °F 93% 30.30 in 10.0 mi NW 3.5 mph - N/A   Overcast